Date String (YYYY-MM-DD hh:mm:ss) UTC,Instrument flags,Ambient pressure (hPa),Sample flow (lpm),Bypass flow (lpm),Sample temperature (°C),Ambient temperature (°C),ASC tube jacket temperature (°C),LED temperature (°C),Box temperature (°C),Sample RH (%),Span deviation,Mass concentration (μg/m³),Mass concentration (μg/m³),Mass concentration (μg/m³)
DateTimeUTC,F1_M11,P_M11,Q1_M11,Q2_M11,T1_M11,T2_M11,T3_M11,T4_M11,T5_M11,U1_M11,ZSPAN_M11,X0_M11,X2_M11,X1_M11
2021-11-09 09:00:00,,0830.8,5.00,0.00,24.5,23.5,00.0,33.6,26.2,18.0,-000.5,0023.51,0014.87,0013.53
2021-11-09 09:01:00,,0830.9,5.00,0.00,24.5,23.5,00.0,33.5,26.2,18.0,-000.6,0023.62,0015.01,0013.62
2021-11-09 09:02:00,,0830.9,5.01,0.00,24.5,23.5,00.0,33.5,26.2,17.9,-000.8,0023.24,0015.09,0013.72
2021-11-09 09:03:00,,0830.9,5.00,0.00,24.5,23.5,00.0,33.5,26.2,17.9,-000.7,0023.17,0015.18,0013.80
2021-11-09 09:04:00,,0830.9,4.99,0.00,24.4,23.5,00.0,33.5,26.1,18.0,-000.6,0023.25,0015.27,0013.81
2021-11-09 09:05:00,,0830.8,4.99,0.00,24.4,23.5,00.0,33.5,26.1,17.8,-000.6,0023.74,0015.27,0013.79
2021-11-09 09:06:00,,0830.8,4.99,0.00,24.4,23.5,00.0,33.5,26.2,17.8,-000.6,0023.59,0015.21,0013.77
2021-11-09 09:07:00,,0830.9,5.01,0.00,24.4,23.5,00.0,33.5,26.1,17.8,-000.5,0023.96,0015.11,0013.68
2021-11-09 09:08:00,,0830.9,4.98,0.00,24.4,23.5,00.0,33.5,26.1,17.9,-000.7,0025.12,0015.08,0013.61
2021-11-09 09:09:00,,0830.9,5.01,0.00,24.4,23.4,00.0,33.5,26.1,18.0,-000.8,0025.29,0015.04,0013.58
2021-11-09 09:10:00,,0830.9,5.00,0.00,24.4,23.4,00.0,33.5,26.1,18.0,-000.9,0025.67,0014.98,0013.53
2021-11-09 09:11:00,,0830.9,5.00,0.00,24.4,23.4,00.0,33.5,26.0,18.0,-001.0,0025.40,0015.00,0013.48
2021-11-09 09:12:00,,0830.9,5.00,0.00,24.4,23.4,00.0,33.5,26.1,18.0,-000.8,0025.27,0014.93,0013.40
2021-11-09 09:13:00,,0830.9,5.01,0.00,24.4,23.4,00.0,33.5,26.1,18.1,-000.7,0025.32,0014.88,0013.35
2021-11-09 09:14:00,,0831.0,5.00,0.00,24.3,23.4,00.0,33.5,26.1,18.1,-000.9,0025.17,0014.79,0013.27
2021-11-09 09:15:00,,0831.0,5.00,0.00,24.3,23.4,00.0,33.5,26.0,18.1,-000.9,0025.27,0014.70,0013.16
2021-11-09 09:16:00,,0831.1,4.99,0.00,24.3,23.4,00.0,33.5,26.0,17.9,-001.1,0025.57,0014.64,0013.07
2021-11-09 09:17:00,,0831.0,5.01,0.00,24.3,23.4,00.0,33.4,26.0,18.1,-001.1,0026.13,0014.65,0013.01
2021-11-09 09:18:00,,0830.9,5.00,0.00,24.3,23.4,00.0,33.4,26.0,18.2,-001.3,0026.02,0014.64,0013.01
2021-11-09 09:19:00,,0830.9,5.00,0.00,24.3,23.4,00.0,33.4,26.1,18.2,-001.5,0025.65,0014.55,0013.03
2021-11-09 09:20:00,,0830.8,5.01,0.00,24.3,23.4,00.0,33.4,26.1,18.2,-001.4,0025.76,0014.56,0013.07
2021-11-09 09:21:00,,0830.9,4.99,0.00,24.3,23.4,00.0,33.4,26.0,18.2,-001.2,0025.72,0014.56,0013.06
2021-11-09 09:22:00,,0830.9,5.00,0.00,24.3,23.4,00.0,33.4,26.0,18.0,-001.1,0025.89,0014.48,0013.03
2021-11-09 09:23:00,,0830.9,4.99,0.00,24.3,23.4,00.0,33.4,26.0,18.0,-001.0,0025.15,0014.43,0013.01
2021-11-09 09:24:00,,0830.9,5.01,0.00,24.3,23.4,00.0,33.4,26.1,18.0,-001.0,0025.27,0014.44,0013.00
2021-11-09 09:25:00,,0830.9,5.00,0.00,24.3,23.4,00.0,33.4,26.1,17.7,-001.0,0024.60,0014.42,0012.99
2021-11-09 09:26:00,,0830.9,5.01,0.00,24.3,23.4,00.0,33.4,26.0,17.5,-001.2,0024.41,0014.33,0012.93
2021-11-09 09:27:00,,0830.9,4.99,0.00,24.3,23.3,00.0,33.4,26.0,17.4,-001.1,0025.03,0014.26,0012.89
2021-11-09 09:28:00,,0830.8,5.00,0.00,24.3,23.3,00.0,33.4,26.0,17.5,-001.1,0024.28,0014.25,0012.90
2021-11-09 09:29:00,,0830.8,5.00,0.00,24.3,23.3,00.0,33.4,26.0,17.8,-001.1,0024.20,0014.22,0012.89
2021-11-09 09:30:00,,0830.8,5.00,0.00,24.3,23.3,00.0,33.4,26.0,17.7,-000.9,0023.53,0014.22,0012.89
2021-11-09 09:31:00,,0830.8,4.99,0.00,24.3,23.3,00.0,33.4,26.0,17.9,-000.8,0023.01,0014.18,0012.86
2021-11-09 09:32:00,,0830.9,5.01,0.00,24.2,23.3,00.0,33.4,26.0,18.0,-000.9,0023.25,0014.19,0012.86
2021-11-09 09:33:00,,0830.9,4.99,0.00,24.2,23.3,00.0,33.3,26.0,18.0,-000.9,0023.19,0014.27,0012.90
2021-11-09 09:34:00,,0830.8,5.01,0.00,24.2,23.3,00.0,33.3,25.9,18.0,-000.9,0023.98,0014.27,0012.94
2021-11-09 09:35:00,,0830.7,4.99,0.00,24.2,23.3,00.0,33.3,26.0,18.1,-001.0,0025.12,0014.24,0012.98
2021-11-09 09:36:00,,0830.8,5.00,0.00,24.2,23.3,00.0,33.3,26.0,18.2,-001.0,0025.22,0014.29,0012.99
2021-11-09 09:37:00,,0830.8,4.99,0.00,24.2,23.3,00.0,33.3,25.9,18.2,-000.9,0025.77,0014.45,0013.07
2021-11-09 09:38:00,,0830.9,5.01,0.00,24.2,23.3,00.0,33.3,25.9,18.1,-000.9,0025.28,0014.67,0013.22
2021-11-09 09:39:00,,0830.8,5.01,0.00,24.2,23.3,00.0,33.3,25.9,18.1,-001.1,0024.95,0014.76,0013.33
2021-11-09 09:40:00,,0830.8,4.99,0.00,24.2,23.3,00.0,33.3,25.9,18.2,-001.0,0025.19,0014.88,0013.45
2021-11-09 09:41:00,,0830.8,5.01,0.00,24.2,23.3,00.0,33.3,25.9,18.3,-001.0,0025.85,0015.01,0013.56
2021-11-09 09:42:00,,0830.8,4.99,0.00,24.2,23.3,00.0,33.3,25.9,17.9,-001.2,0025.98,0015.15,0013.66
2021-11-09 09:43:00,,0830.8,5.00,0.00,24.2,23.3,00.0,33.3,25.9,17.5,-001.3,0025.48,0015.18,0013.71
2021-11-09 09:44:00,,0830.8,5.00,0.00,24.2,23.3,00.0,33.3,25.9,17.7,-001.3,0024.95,0015.16,0013.76
2021-11-09 09:45:00,,0830.9,5.00,0.00,24.2,23.3,00.0,33.3,25.9,17.7,-001.4,0024.98,0015.28,0013.83
2021-11-09 09:46:00,,0830.8,5.00,0.00,24.2,23.3,00.0,33.3,26.0,17.8,-001.3,0025.32,0015.39,0013.89
2021-11-09 09:47:00,,0830.9,4.99,0.00,24.2,23.3,00.0,33.3,26.0,18.0,-001.3,0024.67,0015.43,0013.95
2021-11-09 09:48:00,,0830.9,5.00,0.00,24.2,23.3,00.0,33.2,26.0,18.0,-001.0,0024.71,0015.50,0014.02
2021-11-09 09:49:00,,0830.9,5.00,0.00,24.2,23.3,00.0,33.2,26.0,18.0,-001.1,0025.72,0015.48,0014.02
2021-11-09 09:50:00,,0830.9,5.00,0.00,24.2,23.3,00.0,33.2,26.0,18.0,-001.0,0026.01,0015.53,0014.04
2021-11-09 09:51:00,,0830.9,4.99,0.00,24.2,23.3,00.0,33.2,26.0,18.0,-001.0,0026.12,0015.57,0014.07
2021-11-09 09:52:00,,0830.9,4.99,0.00,24.2,23.3,00.0,33.2,26.0,18.0,-001.0,0025.35,0015.60,0014.08
2021-11-09 09:53:00,,0830.9,5.01,0.00,24.2,23.3,00.0,33.2,26.0,18.0,-000.8,0025.71,0015.66,0014.11
2021-11-09 09:54:00,,0830.9,4.99,0.00,24.2,23.3,00.0,33.2,26.0,18.1,-000.6,0026.23,0015.73,0014.16
2021-11-09 09:55:00,,0830.8,5.00,0.00,24.2,23.3,00.0,33.2,26.0,18.0,-000.6,0027.07,0015.81,0014.17
2021-11-09 09:56:00,,0830.7,4.98,0.00,24.2,23.3,00.0,33.2,25.9,17.9,-000.6,0026.73,0015.81,0014.19
2021-11-09 09:57:00,,0830.8,5.01,0.00,24.2,23.3,00.0,33.2,25.9,17.9,-000.7,0025.48,0015.85,0014.22
2021-11-09 09:58:00,,0830.7,4.98,0.00,24.2,23.3,00.0,33.2,25.9,17.9,-000.8,0025.33,0015.90,0014.25
2021-11-09 09:59:00,,0830.8,5.01,0.00,24.2,23.3,00.0,33.2,25.9,18.0,-000.6,0025.35,0015.85,0014.26
